Location: Dodgeville, WI 53533, USA
(43.0344°N, 90.0900°W)
Time: 05:08:55
(UTC-06:00)

X-37B - Pass Details

Date: 24 January 2021
Orbit: 383 x 391 km, 45.0° (Epoch: 27 February)

Event Time Altitude Azimuth Distance (km) Brightness Sun altitude
Rises 18:32:56 0° 274° (W) 2,272 6.0 -16.4°
Reaches altitude 10° 18:35:01 10° 279° (W) 1,418 4.6 -16.8°
Maximum altitude 18:38:10 57° 359° (N) 465 0.8 -17.4°
Enters shadow 18:38:37 50° 37° (NE) 503 0.8 -17.4°
